Location: Acton
(51.4942°N, 0.2232°W)
Time: 13:36:17
(UTC+00:00)

Okean 1-7 Rocket - Pass Details

Date: 21 January 2021
Orbit: 615 x 650 km, 82.5° (Epoch: 28 February)

Event Time Altitude Azimuth Distance (km) Brightness Sun altitude
Exits shadow 07:01:01 10° 296° (WNW) 2,036 5.5 -8.1°
Maximum altitude 07:02:09 11° 281° (W) 1,975 5.5 -8.0°
Drops below altitude 10° 07:03:24 10° 265° (W) 2,041 5.7 -7.8°
Sets 07:07:19 0° 230° (SW) 2,933 6.8 -7.2°
